| time (UTC) | temp F | wind direction | speed MPH | gust MPH | rain 1hr in | rain 24hr in | rain mn in | humidity % | barometer mb |
| 20260508111026 | 44 | 336 | 1.0 | 2.0 | 0.00 | 0.00 | 0.00 | 55 | 1023.5 |
| 20260508110525 | 44 | 336 | 1.0 | 3.0 | 0.00 | 0.00 | 0.00 | 56 | 1023.7 |
| 20260508110040 | 44 | 336 | 1.0 | 3.0 | 0.00 | 0.00 | 0.00 | 54 | 1023.6 |
| 20260508105525 | 44 | 336 | 1.0 | 3.0 | 0.00 | 0.00 | 0.00 | 51 | 1023.5 |
| 20260508105025 | 44 | 336 | 1.0 | 3.0 | 0.00 | 0.00 | 0.00 | 49 | 1023.6 |
| 20260508104545 | 44 | 336 | 1.0 | 3.0 | 0.00 | 0.00 | 0.00 | 49 | 1023.6 |
| 20260508104024 | 44 | 336 | 1.0 | 3.0 | 0.00 | 0.00 | 0.00 | 49 | 1023.5 |
| 20260508103525 | 44 | 336 | 1.0 | 2.0 | 0.00 | 0.00 | 0.00 | 48 | 1023.6 |
| 20260508103045 | 45 | 0 | 1.0 | 2.0 | 0.00 | 0.00 | 0.00 | 47 | 1023.6 |
| 20260508102523 | 45 | 336 | 1.0 | 2.0 | 0.00 | 0.00 | 0.00 | 44 | 1023.6 |
| 20260508102026 | 45 | 336 | 0.0 | 2.0 | 0.00 | 0.00 | 0.00 | 43 | 1023.6 |
| 20260508101541 | 45 | 336 | 1.0 | 2.0 | 0.00 | 0.00 | 0.00 | 44 | 1023.6 |
| 20260508101026 | 45 | 336 | 1.0 | 2.0 | 0.00 | 0.00 | 0.00 | 44 | 1023.5 |
| 20260508100525 | 45 | 336 | 1.0 | 2.0 | 0.00 | 0.00 | 0.00 | 43 | 1023.5 |
| 20260508100057 | 45 | 336 | 1.0 | 3.0 | 0.00 | 0.00 | 0.00 | 46 | 1023.6 |
| 20260508095527 | 45 | 336 | 1.0 | 3.0 | 0.00 | 0.00 | 0.00 | 51 | 1023.6 |
| 20260508095025 | 45 | 336 | 1.0 | 3.0 | 0.00 | 0.00 | 0.00 | 51 | 1023.7 |
| 20260508094545 | 45 | 336 | 1.0 | 3.0 | 0.00 | 0.00 | 0.00 | 49 | 1023.7 |
| 20260508094024 | 45 | 336 | 1.0 | 3.0 | 0.00 | 0.00 | 0.00 | 49 | 1023.5 |
| 20260508093526 | 46 | 336 | 1.0 | 3.0 | 0.00 | 0.00 | 0.00 | 50 | 1023.6 |
| 20260508093045 | 46 | 336 | 1.0 | 3.0 | 0.00 | 0.00 | 0.00 | 50 | 1023.6 |
| 20260508092526 | 46 | 336 | 1.0 | 3.0 | 0.00 | 0.00 | 0.00 | 48 | 1023.6 |
| 20260508092025 | 46 | 336 | 1.0 | 4.0 | 0.00 | 0.00 | 0.00 | 45 | 1023.7 |
| 20260508091602 | 46 | 336 | 2.0 | 4.0 | 0.00 | 0.00 | 0.00 | 43 | 1023.6 |
| 20260508091024 | 46 | 336 | 1.0 | 3.0 | 0.00 | 0.00 | 0.00 | 42 | 1023.7 |
| 20260508090525 | 46 | 336 | 1.0 | 3.0 | 0.00 | 0.00 | 0.00 | 43 | 1023.7 |
| 20260508090043 | 46 | 336 | 1.0 | 3.0 | 0.00 | 0.00 | 0.00 | 42 | 1023.6 |
| 20260508085525 | 46 | 336 | 2.0 | 3.0 | 0.00 | 0.00 | 0.00 | 42 | 1023.5 |
| 20260508085023 | 46 | 336 | 1.0 | 2.0 | 0.00 | 0.00 | 0.00 | 42 | 1023.7 |
| 20260508084544 | 46 | 336 | 1.0 | 2.0 | 0.00 | 0.00 | 0.00 | 42 | 1023.6 |
| 20260508084024 | 46 | 336 | 1.0 | 2.0 | 0.00 | 0.00 | 0.00 | 42 | 1023.7 |
| 20260508083523 | 47 | 336 | 1.0 | 2.0 | 0.00 | 0.00 | 0.00 | 42 | 1023.7 |
| 20260508083044 | 47 | 336 | 1.0 | 3.0 | 0.00 | 0.00 | 0.00 | 43 | 1023.7 |
| 20260508082524 | 47 | 336 | 1.0 | 3.0 | 0.00 | 0.00 | 0.00 | 42 | 1023.9 |
| 20260508082025 | 47 | 336 | 1.0 | 2.0 | 0.00 | 0.00 | 0.00 | 41 | 1023.9 |
| 20260508081554 | 48 | 336 | 1.0 | 3.0 | 0.00 | 0.00 | 0.00 | 41 | 1023.9 |
| 20260508081027 | 48 | 336 | 1.0 | 4.0 | 0.00 | 0.00 | 0.00 | 40 | 1024.0 |
| 20260508080525 | 48 | 336 | 1.0 | 4.0 | 0.00 | 0.00 | 0.00 | 39 | 1024.0 |
| 20260508080042 | 48 | 336 | 2.0 | 4.0 | 0.00 | 0.00 | 0.00 | 39 | 1024.1 |
| 20260508075525 | 48 | 336 | 2.0 | 4.0 | 0.00 | 0.00 | 0.00 | 39 | 1024.1 |
| 20260508075024 | 48 | 336 | 2.0 | 4.0 | 0.00 | 0.00 | 0.00 | 41 | 1024.2 |
| 20260508074545 | 48 | 336 | 2.0 | 4.0 | 0.00 | 0.00 | 0.00 | 41 | 1024.2 |
| 20260508074025 | 48 | 336 | 2.0 | 4.0 | 0.00 | 0.00 | 0.00 | 42 | 1024.2 |
| 20260508073523 | 48 | 336 | 2.0 | 3.0 | 0.00 | 0.00 | 0.00 | 42 | 1024.3 |
| 20260508073047 | 48 | 336 | 1.0 | 4.0 | 0.00 | 0.00 | 0.00 | 42 | 1024.3 |
| 20260508072523 | 48 | 336 | 2.0 | 4.0 | 0.00 | 0.00 | 0.00 | 42 | 1024.3 |
| 20260508072026 | 48 | 336 | 2.0 | 4.0 | 0.00 | 0.00 | 0.00 | 41 | 1024.3 |
| 20260508071543 | 48 | 336 | 2.0 | 4.0 | 0.00 | 0.00 | 0.00 | 40 | 1024.3 |
| 20260508071025 | 48 | 336 | 2.0 | 4.0 | 0.00 | 0.00 | 0.00 | 39 | 1024.4 |
| 20260508070524 | 48 | 336 | 2.0 | 4.0 | 0.00 | 0.00 | 0.00 | 39 | 1024.4 |
| 20260508070045 | 47 | 217 | 2.0 | 4.0 | 0.00 | 0.00 | 0.00 | 38 | 1024.4 |
| 20260508065524 | 47 | 211 | 2.0 | 4.0 | 0.00 | 0.00 | 0.00 | 38 | 1024.4 |
| 20260508065023 | 47 | 211 | 3.0 | 4.0 | 0.00 | 0.00 | 0.00 | 38 | 1024.4 |
| 20260508064538 | 47 | 211 | 2.0 | 4.0 | 0.00 | 0.00 | 0.00 | 36 | 1024.4 |
| 20260508064024 | 48 | 211 | 1.0 | 3.0 | 0.00 | 0.00 | 0.00 | 35 | 1024.5 |
| 20260508063524 | 48 | 211 | 1.0 | 4.0 | 0.00 | 0.00 | 0.00 | 36 | 1024.5 |
| 20260508063050 | 48 | 211 | 1.0 | 4.0 | 0.00 | 0.00 | 0.00 | 36 | 1024.6 |
| 20260508062526 | 48 | 211 | 2.0 | 4.0 | 0.00 | 0.00 | 0.00 | 36 | 1024.6 |
| 20260508062024 | 48 | 211 | 2.0 | 4.0 | 0.00 | 0.00 | 0.00 | 37 | 1024.6 |
| 20260508061543 | 49 | 211 | 1.0 | 3.0 | 0.00 | 0.00 | 0.00 | 39 | 1024.6 |
| 20260508061024 | 49 | 211 | 2.0 | 4.0 | 0.00 | 0.00 | 0.00 | 37 | 1024.6 |
| 20260508060526 | 49 | 211 | 2.0 | 4.0 | 0.00 | 0.00 | 0.00 | 39 | 1024.6 |
| 20260508060056 | 48 | 211 | 2.0 | 4.0 | 0.00 | 0.00 | 0.00 | 42 | 1024.6 |
| 20260508055524 | 49 | 211 | 2.0 | 4.0 | 0.00 | 0.00 | 0.00 | 42 | 1024.6 |
| 20260508055025 | 49 | 211 | 2.0 | 4.0 | 0.00 | 0.00 | 0.00 | 43 | 1024.7 |
| 20260508054613 | 49 | 211 | 3.0 | 4.0 | 0.00 | 0.00 | 0.00 | 45 | 1024.8 |
| 20260508054026 | 49 | 209 | 3.0 | 4.0 | 0.00 | 0.00 | 0.00 | 46 | 1024.8 |
| 20260508053525 | 49 | 209 | 3.0 | 4.0 | 0.00 | 0.00 | 0.00 | 46 | 1024.7 |
| 20260508053049 | 49 | 209 | 2.0 | 4.0 | 0.00 | 0.00 | 0.00 | 47 | 1024.7 |
| 20260508052527 | 49 | 209 | 2.0 | 4.0 | 0.00 | 0.00 | 0.00 | 47 | 1024.7 |
| 20260508052025 | 49 | 208 | 1.0 | 4.0 | 0.00 | 0.00 | 0.00 | 48 | 1024.6 |
| 20260508051537 | 49 | 208 | 2.0 | 4.0 | 0.00 | 0.00 | 0.00 | 47 | 1024.7 |
| 20260508051027 | 49 | 208 | 2.0 | 4.0 | 0.00 | 0.00 | 0.00 | 47 | 1024.7 |
| 20260508050528 | 49 | 208 | 2.0 | 3.0 | 0.00 | 0.00 | 0.00 | 47 | 1024.8 |
| 20260508050043 | 50 | 208 | 1.0 | 2.0 | 0.00 | 0.00 | 0.00 | 48 | 1024.8 |
| 20260508045527 | 50 | 208 | 1.0 | 4.0 | 0.00 | 0.00 | 0.00 | 48 | 1024.8 |
| 20260508045027 | 50 | 208 | 1.0 | 4.0 | 0.00 | 0.00 | 0.00 | 48 | 1024.9 |
| 20260508044540 | 50 | 208 | 2.0 | 4.0 | 0.00 | 0.00 | 0.00 | 49 | 1024.9 |
| 20260508044026 | 51 | 208 | 2.0 | 3.0 | 0.00 | 0.00 | 0.00 | 50 | 1024.9 |
| 20260508043526 | 51 | 208 | 2.0 | 3.0 | 0.00 | 0.00 | 0.00 | 49 | 1024.9 |
| 20260508043049 | 51 | 207 | 2.0 | 3.0 | 0.00 | 0.00 | 0.00 | 52 | 1024.8 |
| 20260508042524 | 51 | 207 | 2.0 | 3.0 | 0.00 | 0.00 | 0.00 | 52 | 1024.8 |
| 20260508042025 | 51 | 207 | 2.0 | 3.0 | 0.00 | 0.00 | 0.00 | 53 | 1024.7 |
| 20260508041545 | 51 | 207 | 1.0 | 3.0 | 0.00 | 0.00 | 0.00 | 53 | 1024.6 |
| 20260508041027 | 52 | 207 | 1.0 | 2.0 | 0.00 | 0.00 | 0.00 | 54 | 1024.5 |
| 20260508040527 | 52 | 207 | 1.0 | 2.0 | 0.00 | 0.00 | 0.00 | 56 | 1024.4 |
| 20260508040047 | 52 | 207 | 1.0 | 2.0 | 0.00 | 0.00 | 0.00 | 57 | 1024.2 |
| 20260508035527 | 52 | 207 | 1.0 | 2.0 | 0.00 | 0.00 | 0.00 | 61 | 1024.0 |
| 20260508035026 | 52 | 0 | 0.0 | 2.0 | 0.00 | 0.00 | 0.00 | 60 | 1024.0 |
| 20260508034548 | 53 | 0 | 0.0 | 3.0 | 0.00 | 0.00 | 0.00 | 60 | 1023.9 |
| 20260508034026 | 53 | 0 | 1.0 | 3.0 | 0.00 | 0.00 | 0.00 | 60 | 1023.7 |
| 20260508033526 | 53 | 207 | 1.0 | 3.0 | 0.00 | 0.00 | 0.00 | 60 | 1023.7 |
| 20260508033041 | 53 | 0 | 0.0 | 2.0 | 0.00 | 0.00 | 0.00 | 60 | 1023.7 |
| 20260508032526 | 53 | 0 | 0.0 | 2.0 | 0.00 | 0.00 | 0.00 | 58 | 1023.6 |
| 20260508032027 | 54 | 0 | 0.0 | 2.0 | 0.00 | 0.00 | 0.00 | 58 | 1023.5 |
| 20260508031546 | 54 | 207 | 0.0 | 4.0 | 0.00 | 0.00 | 0.00 | 57 | 1023.4 |
| 20260508031026 | 54 | 0 | 1.0 | 4.0 | 0.00 | 0.00 | 0.00 | 55 | 1023.4 |
| 20260508030526 | 54 | 0 | 0.0 | 4.0 | 0.00 | 0.00 | 0.00 | 53 | 1023.2 |
| 20260508030046 | 55 | 189 | 1.0 | 4.0 | 0.00 | 0.00 | 0.00 | 52 | 1023.3 |
| 20260508025527 | 55 | 0 | 1.0 | 4.0 | 0.00 | 0.00 | 0.00 | 50 | 1023.3 |
| 20260508025027 | 55 | 189 | 0.0 | 3.0 | 0.00 | 0.00 | 0.00 | 48 | 1023.2 |
| 20260508024556 | 55 | 0 | 0.0 | 3.0 | 0.00 | 0.00 | 0.00 | 48 | 1023.1 |
| 20260508024027 | 56 | 189 | 0.0 | 3.0 | 0.00 | 0.00 | 0.00 | 46 | 1023.0 |
| 20260508023526 | 56 | 189 | 1.0 | 3.0 | 0.00 | 0.00 | 0.00 | 45 | 1022.9 |
| 20260508023039 | 57 | 189 | 1.0 | 3.0 | 0.00 | 0.00 | 0.00 | 42 | 1022.9 |
| 20260508022531 | 57 | 0 | 0.0 | 4.0 | 0.00 | 0.00 | 0.00 | 41 | 1022.9 |
| 20260508022027 | 57 | 0 | 1.0 | 4.0 | 0.00 | 0.00 | 0.00 | 40 | 1022.9 |
| 20260508021545 | 58 | 189 | 0.0 | 4.0 | 0.00 | 0.00 | 0.00 | 38 | 1022.9 |
| 20260508021031 | 58 | 189 | 0.0 | 4.0 | 0.00 | 0.00 | 0.00 | 38 | 1022.9 |
| 20260508020552 | 58 | 196 | 0.0 | 4.0 | 0.00 | 0.00 | 0.00 | 37 | 1022.8 |
| 20260508020051 | 59 | 196 | 2.0 | 5.0 | 0.00 | 0.00 | 0.00 | 36 | 1022.8 |
| 20260508015526 | 59 | 200 | 2.0 | 7.0 | 0.00 | 0.00 | 0.00 | 37 | 1022.9 |
| 20260508015026 | 59 | 192 | 1.0 | 7.0 | 0.00 | 0.00 | 0.00 | 36 | 1022.8 |
| 20260508014544 | 59 | 225 | 2.0 | 7.0 | 0.00 | 0.00 | 0.00 | 36 | 1022.8 |
| 20260508014027 | 59 | 258 | 0.0 | 7.0 | 0.00 | 0.00 | 0.00 | 37 | 1022.9 |
| 20260508013526 | 59 | 240 | 1.0 | 9.0 | 0.00 | 0.00 | 0.00 | 36 | 1022.8 |
| 20260508013043 | 60 | 231 | 2.0 | 9.0 | 0.00 | 0.00 | 0.00 | 37 | 1022.7 |
| 20260508012526 | 60 | 275 | 1.0 | 4.0 | 0.00 | 0.00 | 0.00 | 39 | 1022.7 |
| 20260508012026 | 60 | 250 | 1.0 | 7.0 | 0.00 | 0.00 | 0.00 | 40 | 1022.7 |
| 20260508011540 | 60 | 249 | 0.0 | 7.0 | 0.00 | 0.00 | 0.00 | 40 | 1022.7 |
| 20260508011026 | 60 | 0 | 1.0 | 8.0 | 0.00 | 0.00 | 0.00 | 40 | 1022.7 |
| 20260508010526 | 60 | 175 | 2.0 | 8.0 | 0.00 | 0.00 | 0.00 | 38 | 1022.7 |
| 20260508010051 | 60 | 191 | 2.0 | 8.0 | 0.00 | 0.00 | 0.00 | 43 | 1022.7 |
| 20260508005526 | 60 | 0 | 1.0 | 7.0 | 0.00 | 0.00 | 0.00 | 42 | 1022.7 |
| 20260508005026 | 60 | 194 | 2.0 | 8.0 | 0.00 | 0.00 | 0.00 | 42 | 1022.7 |
| 20260508004547 | 60 | 197 | 2.0 | 13.0 | 0.00 | 0.00 | 0.00 | 42 | 1022.6 |
| 20260508004025 | 60 | 173 | 2.0 | 14.0 | 0.00 | 0.00 | 0.00 | 43 | 1022.7 |
| 20260508003526 | 61 | 149 | 3.0 | 15.0 | 0.00 | 0.00 | 0.00 | 42 | 1022.7 |
| 20260508003043 | 61 | 192 | 4.0 | 15.0 | 0.00 | 0.00 | 0.00 | 41 | 1022.7 |
| 20260508002526 | 62 | 259 | 3.0 | 9.0 | 0.00 | 0.00 | 0.00 | 40 | 1022.7 |
| 20260508002024 | 62 | 0 | 2.0 | 9.0 | 0.00 | 0.00 | 0.00 | 38 | 1022.7 |
| 20260508001545 | 62 | 289 | 1.0 | 9.0 | 0.00 | 0.00 | 0.00 | 38 | 1022.7 |
| 20260508001027 | 62 | 183 | 3.0 | 11.0 | 0.00 | 0.00 | 0.00 | 36 | 1022.7 |
| 20260508000529 | 62 | 277 | 4.0 | 11.0 | 0.00 | 0.00 | 0.00 | 35 | 1022.7 |
| 20260508000041 | 63 | 175 | 4.0 | 11.0 | 0.00 | 0.00 | 0.00 | 34 | 1022.6 |
| 20260507235527 | 63 | 165 | 4.0 | 11.0 | 0.00 | 0.00 | 0.00 | 35 | 1022.6 |
| 20260507235027 | 64 | 177 | 4.0 | 11.0 | 0.00 | 0.00 | 0.00 | 35 | 1022.6 |
| 20260507234546 | 64 | 170 | 2.0 | 15.0 | 0.00 | 0.00 | 0.00 | 35 | 1022.7 |
| 20260507234026 | 64 | 215 | 3.0 | 15.0 | 0.00 | 0.00 | 0.00 | 35 | 1022.7 |
| 20260507233527 | 64 | 178 | 5.0 | 15.0 | 0.00 | 0.00 | 0.00 | 35 | 1022.7 |
| 20260507233046 | 64 | 315 | 2.0 | 10.0 | 0.00 | 0.00 | 0.00 | 35 | 1022.8 |
| 20260507232525 | 65 | 171 | 4.0 | 13.0 | 0.00 | 0.00 | 0.00 | 32 | 1022.7 |
| 20260507232026 | 65 | 42 | 3.0 | 13.0 | 0.00 | 0.00 | 0.00 | 34 | 1022.7 |
| 20260507231548 | 65 | 185 | 2.0 | 12.0 | 0.00 | 0.00 | 0.00 | 33 | 1022.7 |
| 20260507231026 | 65 | 205 | 4.0 | 12.0 | 0.00 | 0.00 | 0.00 | 32 | 1022.7 |
| 20260507230527 | 65 | 246 | 3.0 | 15.0 | 0.00 | 0.00 | 0.00 | 33 | 1022.7 |
| 20260507230047 | 65 | 128 | 5.0 | 16.0 | 0.00 | 0.00 | 0.00 | 33 | 1022.7 |
| 20260507225527 | 65 | 175 | 4.0 | 16.0 | 0.00 | 0.00 | 0.00 | 34 | 1022.7 |
| 20260507225057 | 65 | 177 | 2.0 | 18.0 | 0.00 | 0.00 | 0.00 | 33 | 1022.7 |
| 20260507224542 | 65 | 195 | 5.0 | 18.0 | 0.00 | 0.00 | 0.00 | 33 | 1022.8 |
| 20260507224027 | 66 | 189 | 3.0 | 12.0 | 0.00 | 0.00 | 0.00 | 33 | 1022.7 |
| 20260507223527 | 66 | 199 | 3.0 | 14.0 | 0.00 | 0.00 | 0.00 | 33 | 1022.7 |
| 20260507223039 | 65 | 136 | 3.0 | 15.0 | 0.00 | 0.00 | 0.00 | 32 | 1022.9 |
| 20260507222526 | 65 | 195 | 6.0 | 19.0 | 0.00 | 0.00 | 0.00 | 31 | 1022.9 |
| 20260507222026 | 66 | 215 | 4.0 | 19.0 | 0.00 | 0.00 | 0.00 | 33 | 1022.9 |
| 20260507221545 | 65 | 235 | 2.0 | 18.0 | 0.00 | 0.00 | 0.00 | 35 | 1022.9 |
| 20260507221025 | 65 | 238 | 6.0 | 18.0 | 0.00 | 0.00 | 0.00 | 33 | 1023.1 |
| 20260507220524 | 66 | 187 | 3.0 | 15.0 | 0.00 | 0.00 | 0.00 | 34 | 1023.2 |
| 20260507220043 | 66 | 188 | 3.0 | 15.0 | 0.00 | 0.00 | 0.00 | 34 | 1023.1 |
| 20260507215525 | 66 | 159 | 3.0 | 15.0 | 0.00 | 0.00 | 0.00 | 35 | 1023.1 |
| 20260507215026 | 65 | 196 | 4.0 | 14.0 | 0.00 | 0.00 | 0.00 | 35 | 1023.2 |
| 20260507214548 | 65 | 167 | 6.0 | 14.0 | 0.00 | 0.00 | 0.00 | 33 | 1023.2 |
| 20260507214024 | 65 | 203 | 7.0 | 14.0 | 0.00 | 0.00 | 0.00 | 34 | 1023.3 |
| 20260507213528 | 65 | 166 | 7.0 | 16.0 | 0.00 | 0.00 | 0.00 | 32 | 1023.2 |
| 20260507213047 | 65 | 164 | 5.0 | 17.0 | 0.00 | 0.00 | 0.00 | 36 | 1023.3 |
| 20260507212524 | 65 | 182 | 6.0 | 17.0 | 0.00 | 0.00 | 0.00 | 36 | 1023.3 |
| 20260507212026 | 66 | 173 | 6.0 | 15.0 | 0.00 | 0.00 | 0.00 | 34 | 1023.4 |
| 20260507211542 | 66 | 113 | 6.0 | 15.0 | 0.00 | 0.00 | 0.00 | 36 | 1023.5 |
| 20260507211027 | 65 | 202 | 5.0 | 15.0 | 0.00 | 0.00 | 0.00 | 35 | 1023.5 |
| 20260507210525 | 65 | 196 | 6.0 | 17.0 | 0.00 | 0.00 | 0.00 | 34 | 1023.5 |
| 20260507210047 | 65 | 209 | 5.0 | 17.0 | 0.00 | 0.00 | 0.00 | 37 | 1023.5 |
| 20260507205526 | 65 | 163 | 5.0 | 16.0 | 0.00 | 0.00 | 0.00 | 37 | 1023.6 |
| 20260507205025 | 65 | 196 | 5.0 | 16.0 | 0.00 | 0.00 | 0.00 | 38 | 1023.7 |
| 20260507204541 | 64 | 189 | 5.0 | 16.0 | 0.00 | 0.00 | 0.00 | 40 | 1023.8 |
| 20260507204025 | 64 | 157 | 3.0 | 11.0 | 0.00 | 0.00 | 0.00 | 40 | 1023.8 |
| 20260507203527 | 63 | 211 | 5.0 | 11.0 | 0.00 | 0.00 | 0.00 | 41 | 1024.0 |
| 20260507203043 | 63 | 205 | 4.0 | 10.0 | 0.00 | 0.00 | 0.00 | 46 | 1024.0 |
| 20260507202525 | 63 | 140 | 4.0 | 9.0 | 0.00 | 0.00 | 0.00 | 43 | 1024.0 |
| 20260507202026 | 63 | 178 | 4.0 | 9.0 | 0.00 | 0.00 | 0.00 | 43 | 1024.0 |
| 20260507201545 | 63 | 184 | 3.0 | 9.0 | 0.00 | 0.00 | 0.00 | 44 | 1024.1 |
| 20260507201024 | 62 | 197 | 3.0 | 8.0 | 0.00 | 0.00 | 0.00 | 50 | 1024.2 |
| 20260507200524 | 61 | 182 | 3.0 | 11.0 | 0.00 | 0.00 | 0.00 | 49 | 1024.3 |
| 20260507200037 | 61 | 169 | 4.0 | 11.0 | 0.00 | 0.00 | 0.00 | 48 | 1024.3 |
| 20260507195526 | 61 | 173 | 4.0 | 8.0 | 0.00 | 0.00 | 0.00 | 45 | 1024.3 |
| 20260507195025 | 62 | 178 | 3.0 | 7.0 | 0.00 | 0.00 | 0.00 | 44 | 1024.4 |
| 20260507194548 | 63 | 171 | 3.0 | 7.0 | 0.00 | 0.00 | 0.00 | 44 | 1024.4 |
| 20260507194026 | 62 | 188 | 2.0 | 7.0 | 0.00 | 0.00 | 0.00 | 46 | 1024.4 |
| 20260507193524 | 62 | 153 | 3.0 | 8.0 | 0.00 | 0.00 | 0.00 | 47 | 1024.4 |
| 20260507193043 | 62 | 169 | 4.0 | 8.0 | 0.00 | 0.00 | 0.00 | 47 | 1024.4 |
| 20260507192524 | 62 | 130 | 2.0 | 8.0 | 0.00 | 0.00 | 0.00 | 46 | 1024.5 |
| 20260507192026 | 61 | 186 | 2.0 | 8.0 | 0.00 | 0.00 | 0.00 | 47 | 1024.4 |
| 20260507191542 | 61 | 197 | 2.0 | 7.0 | 0.00 | 0.00 | 0.00 | 47 | 1024.5 |
| 20260507191026 | 61 | 178 | 3.0 | 7.0 | 0.00 | 0.00 | 0.00 | 44 | 1024.5 |
| 20260507190526 | 61 | 145 | 3.0 | 7.0 | 0.00 | 0.00 | 0.00 | 46 | 1024.6 |
| 20260507190040 | 61 | 168 | 3.0 | 7.0 | 0.00 | 0.00 | 0.00 | 43 | 1024.6 |
| 20260507185528 | 62 | 133 | 3.0 | 8.0 | 0.00 | 0.00 | 0.00 | 44 | 1024.7 |
| 20260507185027 | 62 | 161 | 2.0 | 8.0 | 0.00 | 0.00 | 0.00 | 43 | 1024.8 |
| 20260507184546 | 62 | 188 | 2.0 | 8.0 | 0.00 | 0.00 | 0.00 | 44 | 1024.8 |
| 20260507184027 | 61 | 192 | 2.0 | 8.0 | 0.00 | 0.00 | 0.00 | 48 | 1024.7 |
| 20260507183529 | 60 | 207 | 4.0 | 8.0 | 0.00 | 0.00 | 0.00 | 44 | 1024.7 |
| 20260507183049 | 60 | 186 | 3.0 | 7.0 | 0.00 | 0.00 | 0.00 | 45 | 1024.9 |
| 20260507182526 | 60 | 142 | 3.0 | 7.0 | 0.00 | 0.00 | 0.00 | 45 | 1024.9 |
| 20260507182026 | 60 | 190 | 3.0 | 7.0 | 0.00 | 0.00 | 0.00 | 47 | 1024.8 |
| 20260507181544 | 60 | 188 | 3.0 | 7.0 | 0.00 | 0.00 | 0.00 | 47 | 1024.8 |
| 20260507181025 | 59 | 186 | 2.0 | 7.0 | 0.00 | 0.00 | 0.00 | 53 | 1024.7 |
| 20260507180524 | 59 | 192 | 2.0 | 7.0 | 0.00 | 0.00 | 0.00 | 53 | 1024.8 |
| 20260507180052 | 59 | 191 | 4.0 | 8.0 | 0.00 | 0.00 | 0.00 | 54 | 1024.8 |
| 20260507175525 | 59 | 169 | 3.0 | 8.0 | 0.00 | 0.00 | 0.00 | 55 | 1024.8 |
| 20260507175026 | 59 | 157 | 2.0 | 6.0 | 0.00 | 0.00 | 0.00 | 55 | 1024.8 |
| 20260507174541 | 59 | 188 | 2.0 | 6.0 | 0.00 | 0.00 | 0.00 | 59 | 1024.8 |
| 20260507174025 | 59 | 190 | 3.0 | 7.0 | 0.00 | 0.00 | 0.00 | 57 | 1024.8 |
| 20260507173527 | 58 | 178 | 2.0 | 7.0 | 0.00 | 0.00 | 0.00 | 62 | 1024.8 |
| 20260507173049 | 58 | 180 | 1.0 | 6.0 | 0.00 | 0.00 | 0.00 | 64 | 1024.7 |
| 20260507172527 | 57 | 179 | 2.0 | 6.0 | 0.00 | 0.00 | 0.00 | 62 | 1024.7 |
| 20260507172023 | 57 | 181 | 3.0 | 6.0 | 0.00 | 0.00 | 0.00 | 63 | 1024.7 |
| 20260507171600 | 56 | 176 | 3.0 | 6.0 | 0.00 | 0.00 | 0.00 | 66 | 1024.7 |
| 20260507171025 | 56 | 140 | 3.0 | 6.0 | 0.00 | 0.00 | 0.00 | 66 | 1024.7 |
| 20260507170527 | 56 | 186 | 2.0 | 7.0 | 0.00 | 0.00 | 0.00 | 70 | 1024.7 |
| 20260507170045 | 56 | 168 | 4.0 | 7.0 | 0.00 | 0.00 | 0.00 | 68 | 1024.7 |
| 20260507165525 | 56 | 161 | 3.0 | 7.0 | 0.00 | 0.00 | 0.00 | 70 | 1024.8 |
| 20260507165025 | 55 | 161 | 2.0 | 7.0 | 0.00 | 0.00 | 0.00 | 71 | 1024.8 |
| 20260507164548 | 55 | 157 | 3.0 | 7.0 | 0.00 | 0.00 | 0.00 | 70 | 1024.8 |
| 20260507164025 | 56 | 171 | 3.0 | 6.0 | 0.00 | 0.00 | 0.00 | 69 | 1024.7 |
| 20260507163525 | 56 | 187 | 2.0 | 5.0 | 0.00 | 0.00 | 0.00 | 70 | 1024.7 |
| 20260507163049 | 55 | 187 | 2.0 | 6.0 | 0.00 | 0.00 | 0.00 | 71 | 1024.7 |
| 20260507162525 | 55 | 187 | 2.0 | 6.0 | 0.00 | 0.00 | 0.00 | 70 | 1024.7 |
| 20260507162027 | 55 | 182 | 2.0 | 6.0 | 0.00 | 0.00 | 0.00 | 70 | 1024.7 |
| 20260507161546 | 55 | 179 | 1.0 | 6.0 | 0.00 | 0.00 | 0.00 | 72 | 1024.7 |
| 20260507161026 | 55 | 179 | 2.0 | 4.0 | 0.00 | 0.00 | 0.00 | 72 | 1024.7 |
| 20260507160527 | 55 | 179 | 1.0 | 4.0 | 0.00 | 0.00 | 0.00 | 73 | 1024.8 |
| 20260507160048 | 54 | 179 | 2.0 | 4.0 | 0.00 | 0.00 | 0.00 | 74 | 1024.8 |
| 20260507155526 | 54 | 179 | 1.0 | 6.0 | 0.00 | 0.00 | 0.00 | 73 | 1024.7 |
| 20260507155026 | 54 | 179 | 1.0 | 6.0 | 0.00 | 0.00 | 0.00 | 74 | 1024.6 |
| 20260507154538 | 53 | 179 | 2.0 | 6.0 | 0.00 | 0.00 | 0.00 | 74 | 1024.7 |
| 20260507154026 | 53 | 179 | 2.0 | 5.0 | 0.00 | 0.00 | 0.00 | 74 | 1024.8 |
| 20260507153526 | 53 | 179 | 2.0 | 4.0 | 0.00 | 0.00 | 0.00 | 75 | 1024.8 |
| 20260507153045 | 53 | 179 | 1.0 | 5.0 | 0.00 | 0.00 | 0.00 | 75 | 1024.7 |
| 20260507152526 | 53 | 179 | 2.0 | 5.0 | 0.00 | 0.00 | 0.00 | 74 | 1024.8 |
| 20260507152026 | 53 | 179 | 1.0 | 5.0 | 0.00 | 0.00 | 0.00 | 74 | 1024.8 |
| 20260507151543 | 53 | 179 | 1.0 | 4.0 | 0.00 | 0.00 | 0.00 | 74 | 1024.7 |
| 20260507151026 | 53 | 179 | 1.0 | 4.0 | 0.00 | 0.00 | 0.00 | 73 | 1024.6 |
| 20260507150529 | 52 | 179 | 1.0 | 4.0 | 0.00 | 0.00 | 0.00 | 74 | 1024.8 |
| 20260507150037 | 53 | 179 | 1.0 | 4.0 | 0.00 | 0.00 | 0.00 | 74 | 1024.8 |
| 20260507145526 | 52 | 179 | 1.0 | 4.0 | 0.00 | 0.00 | 0.00 | 74 | 1024.8 |
| 20260507145029 | 52 | 179 | 1.0 | 4.0 | 0.00 | 0.00 | 0.00 | 73 | 1024.7 |
| 20260507144545 | 53 | 0 | 0.0 | 0.0 | 0.00 | 0.00 | 0.00 | 72 | 1024.7 |
| 20260507144025 | 53 | 0 | 0.0 | 0.0 | 0.00 | 0.00 | 0.00 | 73 | 1024.8 |
| 20260507143526 | 53 | 0 | 0.0 | 0.0 | 0.00 | 0.00 | 0.00 | 74 | 1024.8 |
| 20260507143048 | 53 | 0 | 0.0 | 0.0 | 0.00 | 0.00 | 0.00 | 72 | 1024.7 |
| 20260507142526 | 53 | 0 | 0.0 | 0.0 | 0.00 | 0.00 | 0.00 | 74 | 1024.7 |
| 20260507142026 | 52 | 0 | 0.0 | 0.0 | 0.00 | 0.00 | 0.00 | 74 | 1024.7 |
| 20260507141545 | 51 | 0 | 0.0 | 0.0 | 0.00 | 0.00 | 0.00 | 77 | 1024.7 |
| 20260507141027 | 50 | 0 | 0.0 | 0.0 | 0.00 | 0.00 | 0.00 | 77 | 1024.6 |
| 20260507140527 | 49 | 0 | 0.0 | 0.0 | 0.00 | 0.00 | 0.00 | 80 | 1024.6 |
| 20260507140043 | 48 | 0 | 0.0 | 0.0 | 0.00 | 0.00 | 0.00 | 80 | 1024.6 |
| 20260507135524 | 47 | 0 | 0.0 | 0.0 | 0.00 | 0.00 | 0.00 | 81 | 1024.6 |
| 20260507135024 | 47 | 0 | 0.0 | 0.0 | 0.00 | 0.00 | 0.00 | 82 | 1024.5 |
| 20260507134538 | 46 | 0 | 0.0 | 0.0 | 0.00 | 0.00 | 0.00 | 83 | 1024.5 |
| 20260507134025 | 46 | 0 | 0.0 | 0.0 | 0.00 | 0.00 | 0.00 | 84 | 1024.4 |
| 20260507133526 | 46 | 0 | 0.0 | 0.0 | 0.00 | 0.00 | 0.00 | 84 | 1024.4 |
| 20260507133104 | 45 | 0 | 0.0 | 0.0 | 0.00 | 0.00 | 0.00 | 84 | 1024.3 |
| 20260507132525 | 46 | 0 | 0.0 | 0.0 | 0.00 | 0.00 | 0.00 | 83 | 1024.3 |
| 20260507132025 | 46 | 0 | 0.0 | 0.0 | 0.00 | 0.00 | 0.00 | 83 | 1024.3 |
| 20260507131544 | 46 | 0 | 0.0 | 0.0 | 0.00 | 0.00 | 0.00 | 83 | 1024.2 |
| 20260507131027 | 46 | 0 | 0.0 | 0.0 | 0.00 | 0.00 | 0.00 | 82 | 1024.2 |
| 20260507130526 | 46 | 0 | 0.0 | 0.0 | 0.00 | 0.00 | 0.00 | 82 | 1024.2 |
| 20260507130051 | 46 | 0 | 0.0 | 0.0 | 0.00 | 0.00 | 0.00 | 82 | 1024.2 |
| 20260507125525 | 46 | 0 | 0.0 | 0.0 | 0.00 | 0.01 | 0.00 | 82 | 1024.2 |
| 20260507125025 | 46 | 0 | 0.0 | 0.0 | 0.00 | 0.01 | 0.00 | 80 | 1024.2 |
| 20260507124557 | 46 | 0 | 0.0 | 0.0 | 0.00 | 0.01 | 0.00 | 79 | 1024.1 |
| 20260507124026 | 46 | 0 | 0.0 | 0.0 | 0.00 | 0.01 | 0.00 | 80 | 1024.1 |
| 20260507123526 | 46 | 0 | 0.0 | 0.0 | 0.00 | 0.01 | 0.00 | 80 | 1024.2 |
| 20260507123039 | 46 | 0 | 0.0 | 0.0 | 0.00 | 0.01 | 0.00 | 80 | 1024.1 |
| 20260507122525 | 47 | 0 | 0.0 | 0.0 | 0.00 | 0.01 | 0.00 | 79 | 1024.1 |
| 20260507122026 | 47 | 0 | 0.0 | 0.0 | 0.00 | 0.01 | 0.00 | 79 | 1024.2 |
| 20260507121544 | 47 | 0 | 0.0 | 0.0 | 0.00 | 0.01 | 0.00 | 79 | 1024.2 |
| 20260507121027 | 47 | 0 | 0.0 | 0.0 | 0.00 | 0.01 | 0.00 | 79 | 1024.2 |
| 20260507120529 | 47 | 0 | 0.0 | 0.0 | 0.00 | 0.01 | 0.00 | 77 | 1024.1 |
| 20260507120043 | 47 | 0 | 0.0 | 0.0 | 0.00 | 0.01 | 0.00 | 77 | 1024.1 |
| 20260507115526 | 48 | 0 | 0.0 | 0.0 | 0.00 | 0.01 | 0.00 | 76 | 1024.1 |
| 20260507115031 | 48 | 0 | 0.0 | 0.0 | 0.00 | 0.01 | 0.00 | 76 | 1024.0 |
| 20260507114558 | 47 | 0 | 0.0 | 0.0 | 0.00 | 0.01 | 0.00 | 77 | 1024.0 |
| 20260507114024 | 47 | 0 | 0.0 | 0.0 | 0.00 | 0.01 | 0.00 | 77 | 1024.0 |
| 20260507113524 | 47 | 0 | 0.0 | 0.0 | 0.00 | 0.01 | 0.00 | 77 | 1024.0 |
| 20260507113039 | 47 | 0 | 0.0 | 0.0 | 0.00 | 0.01 | 0.00 | 77 | 1024.1 |
| 20260507112524 | 47 | 0 | 0.0 | 0.0 | 0.00 | 0.01 | 0.00 | 78 | 1024.0 |
| 20260507112026 | 47 | 0 | 0.0 | 0.0 | 0.00 | 0.01 | 0.00 | 78 | 1024.2 |
| 20260507111545 | 47 | 0 | 0.0 | 0.0 | 0.00 | 0.01 | 0.00 | 79 | 1024.2 |